ニート彗星

303P/NEAT (2003)

English version
Home page
Updated on June 15, 2014

---------------------------------------------------------------------

・ プロフィール

符号 303P/2003 U3
発見日 2003年10月22日
発見光度 18.9等
発見者 Near-Earth-Asteroid Tracking Team (Jet Propulsion Laboratory)

・ 軌道要素

Epoch 2003 May 1.0 TT = JDT 2452760.5
T 2003 Apr. 23.11725 TT                                 MPC
q   2.4960348            (2000.0)            P               Q
n   0.08602837     Peri.  356.27149     +0.96437686     +0.26337327
a   5.0820810      Node   348.36792     -0.23941992     +0.82924048
e   0.5088558      Incl.    7.04650     -0.11249612     +0.49294497
P  11.5
From 124 observations 2003 Oct. 17-2014 June 2, mean residual 0".6.

・ 星図

・ 光度変化

        m1 = 12.5 + 5 logΔ + 10.0 log r

---------------------------------------------------------------------

軌道要素はM.P.E.C. 2014-L12に掲載されたものです。
星図は StellaNavigator Ver.2.0 for Windows (アストロアーツ 編著 / アスキー出版局刊) で作成したものです。
光度グラフはComet for Windowsで作成したものです。

---------------------------------------------------------------------

Copyright(C) Seiichi Yoshida (comet@aerith.net). All rights reserved.